When you browse on this site, cookies collect data to enhance your experience and personalize the content and advertising you see.
Visit our Privacy Policy to learn more. By continuing to use the site, you agree to this use of cookies and data.
  • In Deutschland
  • Länderverzeichnis
  • Für 7 Tage
  • Wassertemperatur
  • Satellitenkarten
  • Wetterkarte
  • Widgets
  • user-avatar
    Anmelden

    Stündliche Wetter El Salvador

    Heute, 17 November, Samstag

    Zeit Temperatur Niederschläge Wind Luftdruck Luftfeuchtigkeit
    00:00 +25°C° 0 mm 4 m/S 757 mmHg 92%
    01:00 +25°C° 0.1 mm 4 m/S 757 mmHg 93%
    02:00 +25°C° 0.1 mm 4 m/S 756 mmHg 94%
    03:00 +23°C° 0.1 mm 4 m/S 756 mmHg 95%
    04:00 +25°C° 0.1 mm 4 m/S 756 mmHg 94%
    05:00 +25°C° 0.1 mm 4 m/S 757 mmHg 93%
    06:00 +26°C° 0.1 mm 4 m/S 757 mmHg 92%
    07:00 +27°C° 0.1 mm 4 m/S 757 mmHg 82%
    08:00 +29°C° 0.1 mm 4 m/S 757 mmHg 73%
    09:00 +32°C° 0.1 mm 4 m/S 758 mmHg 64%
    10:00 +33°C° 0.1 mm 5 m/S 758 mmHg 60%
    11:00 +33°C° 0.1 mm 5 m/S 757 mmHg 57%
    12:00 +34°C° 0.1 mm 5 m/S 757 mmHg 53%
    13:00 +34°C° 0 mm 5 m/S 757 mmHg 54%
    14:00 +33°C° 0 mm 5 m/S 756 mmHg 55%
    15:00 +33°C° 0 mm 5 m/S 756 mmHg 57%
    16:00 +30°C° 0 mm 5 m/S 756 mmHg 64%
    17:00 +29°C° 0 mm 5 m/S 756 mmHg 71%
    18:00 +27°C° 0 mm 5 m/S 756 mmHg 78%
    19:00 +27°C° 0 mm 5 m/S 757 mmHg 82%
    20:00 +26°C° 0 mm 5 m/S 757 mmHg 86%
    21:00 +25°C° 0 mm 4 m/S 758 mmHg 90%
    22:00 +25°C° 0.2 mm 4 m/S 758 mmHg 92%
    23:00 +25°C° 0.2 mm 4 m/S 758 mmHg 93%

    Morgen, 18 November, Sonntag

    Zeit Temperatur Niederschläge Wind Luftdruck Luftfeuchtigkeit
    00:00 +25°C° 0.2 mm 4 m/S 757 mmHg 95%
    01:00 +25°C° 0.1 mm 4 m/S 757 mmHg 95%
    02:00 +25°C° 0.1 mm 4 m/S 757 mmHg 95%
    03:00 +25°C° 0.1 mm 4 m/S 756 mmHg 95%
    04:00 +25°C° 0.1 mm 4 m/S 756 mmHg 94%
    05:00 +25°C° 0.1 mm 4 m/S 757 mmHg 93%
    06:00 +25°C° 0.1 mm 3 m/S 757 mmHg 92%
    07:00 +27°C° 0.1 mm 4 m/S 757 mmHg 83%
    08:00 +29°C° 0.1 mm 4 m/S 758 mmHg 74%
    09:00 +32°C° 0.1 mm 4 m/S 758 mmHg 65%
    10:00 +32°C° 0.2 mm 5 m/S 758 mmHg 64%
    11:00 +33°C° 0.2 mm 5 m/S 757 mmHg 62%
    12:00 +33°C° 0.2 mm 5 m/S 757 mmHg 61%
    13:00 +33°C° 0.1 mm 5 m/S 756 mmHg 62%
    14:00 +32°C° 0.1 mm 6 m/S 756 mmHg 63%
    15:00 +32°C° 0.1 mm 6 m/S 755 mmHg 64%
    16:00 +30°C° 0 mm 5 m/S 755 mmHg 70%
    17:00 +28°C° 0 mm 5 m/S 755 mmHg 75%
    18:00 +27°C° 0 mm 5 m/S 756 mmHg 81%
    19:00 +26°C° 0 mm 5 m/S 756 mmHg 83%
    20:00 +26°C° 0 mm 4 m/S 757 mmHg 86%
    21:00 +25°C° 0 mm 4 m/S 757 mmHg 89%
    22:00 +25°C° 0 mm 4 m/S 757 mmHg 90%
    23:00 +23°C° 0 mm 4 m/S 757 mmHg 91%

    übermorgen, 19 November, Montag

    Zeit Temperatur Niederschläge Wind Luftdruck Luftfeuchtigkeit
    00:00 +24°C° 0 mm 3 m/S 756 mmHg 92%
    01:00 +24°C° 0 mm 3 m/S 756 mmHg 93%
    02:00 +24°C° 0 mm 3 m/S 756 mmHg 93%
    03:00 +24°C° 0 mm 2 m/S 755 mmHg 94%
    04:00 +24°C° 0.1 mm 2 m/S 756 mmHg 93%
    05:00 +25°C° 0.1 mm 2 m/S 756 mmHg 91%
    06:00 +25°C° 0.1 mm 2 m/S 756 mmHg 90%
    07:00 +27°C° 0.1 mm 3 m/S 757 mmHg 80%
    08:00 +29°C° 0.1 mm 3 m/S 757 mmHg 70%
    09:00 +31°C° 0.1 mm 3 m/S 757 mmHg 60%
    10:00 +31°C° 0 mm 3 m/S 757 mmHg 57%
    11:00 +33°C° 0 mm 3 m/S 756 mmHg 54%
    12:00 +33°C° 0 mm 3 m/S 756 mmHg 52%
    13:00 +33°C° 0 mm 4 m/S 755 mmHg 52%
    14:00 +33°C° 0 mm 4 m/S 754 mmHg 53%
    15:00 +33°C° 0 mm 4 m/S 754 mmHg 53%
    16:00 +32°C° 0 mm 4 m/S 754 mmHg 60%
    17:00 +29°C° 0 mm 4 m/S 754 mmHg 67%
    18:00 +27°C° 0 mm 4 m/S 754 mmHg 75%
    19:00 +27°C° 0 mm 4 m/S 755 mmHg 79%
    20:00 +26°C° 0 mm 4 m/S 756 mmHg 84%
    21:00 +25°C° 0 mm 4 m/S 756 mmHg 88%
    22:00 +25°C° 0 mm 4 m/S 756 mmHg 90%
    23:00 +25°C° 0 mm 3 m/S 756 mmHg 92%

    20 November, Dienstag

    Zeit Temperatur Niederschläge Wind Luftdruck Luftfeuchtigkeit
    00:00 +24°C° 0 mm 3 m/S 756 mmHg 93%
    01:00 +24°C° 0.1 mm 3 m/S 756 mmHg 94%
    02:00 +24°C° 0.1 mm 3 m/S 755 mmHg 94%
    03:00 +24°C° 0.1 mm 3 m/S 755 mmHg 95%
    04:00 +24°C° 0.1 mm 3 m/S 756 mmHg 93%
    05:00 +25°C° 0.1 mm 3 m/S 756 mmHg 92%
    06:00 +25°C° 0.1 mm 3 m/S 757 mmHg 90%
    07:00 +27°C° 0.1 mm 4 m/S 757 mmHg 80%
    08:00 +29°C° 0.1 mm 4 m/S 757 mmHg 70%
    09:00 +32°C° 0.1 mm 5 m/S 758 mmHg 61%
    10:00 +33°C° 0.1 mm 5 m/S 757 mmHg 58%
    11:00 +34°C° 0.1 mm 5 m/S 757 mmHg 55%
    12:00 +35°C° 0.1 mm 5 m/S 756 mmHg 51%
    13:00 +34°C° 0 mm 5 m/S 756 mmHg 52%
    14:00 +34°C° 0 mm 5 m/S 755 mmHg 53%
    15:00 +33°C° 0 mm 5 m/S 755 mmHg 54%
    16:00 +32°C° 0 mm 5 m/S 755 mmHg 61%
    17:00 +29°C° 0 mm 5 m/S 755 mmHg 68%
    18:00 +27°C° 0 mm 4 m/S 756 mmHg 74%
    19:00 +27°C° 0 mm 4 m/S 756 mmHg 79%
    20:00 +26°C° 0 mm 4 m/S 757 mmHg 83%
    21:00 +25°C° 0 mm 4 m/S 757 mmHg 88%
    22:00 +25°C° 0.1 mm 4 m/S 757 mmHg 90%
    23:00 +25°C° 0.1 mm 4 m/S 757 mmHg 91%

    21 November, Mittwoch

    Zeit Temperatur Niederschläge Wind Luftdruck Luftfeuchtigkeit
    00:00 +25°C° 0.1 mm 4 m/S 757 mmHg 93%
    01:00 +25°C° 0.1 mm 4 m/S 756 mmHg 93%
    02:00 +25°C° 0.1 mm 4 m/S 756 mmHg 94%
    03:00 +23°C° 0.1 mm 4 m/S 756 mmHg 94%
    04:00 +25°C° 0.1 mm 4 m/S 756 mmHg 93%
    05:00 +25°C° 0.1 mm 4 m/S 756 mmHg 92%
    06:00 +26°C° 0.1 mm 4 m/S 757 mmHg 92%
    07:00 +27°C° 0.1 mm 4 m/S 757 mmHg 84%
    08:00 +29°C° 0.1 mm 5 m/S 757 mmHg 76%
    09:00 +30°C° 0.1 mm 5 m/S 758 mmHg 69%
    10:00 +30°C° 0.1 mm 5 m/S 757 mmHg 67%
    11:00 +32°C° 0.1 mm 5 m/S 757 mmHg 66%
    12:00 +32°C° 0.1 mm 5 m/S 756 mmHg 64%
    13:00 +32°C° 0.1 mm 5 m/S 756 mmHg 64%
    14:00 +32°C° 0.1 mm 5 m/S 755 mmHg 63%
    15:00 +32°C° 0.1 mm 5 m/S 755 mmHg 63%
    16:00 +30°C° 0.1 mm 5 m/S 755 mmHg 69%
    17:00 +28°C° 0.1 mm 5 m/S 756 mmHg 75%
    18:00 +27°C° 0.1 mm 5 m/S 756 mmHg 81%
    19:00 +27°C° 0.1 mm 5 m/S 756 mmHg 84%
    20:00 +26°C° 0.1 mm 5 m/S 757 mmHg 88%
    21:00 +24°C° 0.1 mm 6 m/S 757 mmHg 91%
    22:00 +25°C° 0.1 mm 5 m/S 757 mmHg 92%
    23:00 +25°C° 0.1 mm 5 m/S 756 mmHg 93%

    22 November, Donnerstag

    Zeit Temperatur Niederschläge Wind Luftdruck Luftfeuchtigkeit
    00:00 +25°C° 0.1 mm 5 m/S 756 mmHg 94%
    01:00 +25°C° 0.1 mm 5 m/S 756 mmHg 94%
    02:00 +25°C° 0.1 mm 5 m/S 756 mmHg 94%
    03:00 +25°C° 0.1 mm 5 m/S 755 mmHg 95%
    04:00 +25°C° 0.1 mm 5 m/S 756 mmHg 93%
    05:00 +25°C° 0.1 mm 4 m/S 756 mmHg 92%
    06:00 +26°C° 0.1 mm 4 m/S 756 mmHg 91%
    07:00 +27°C° 0.1 mm 4 m/S 757 mmHg 81%
    08:00 +29°C° 0.1 mm 5 m/S 757 mmHg 70%
    09:00 +32°C° 0.1 mm 5 m/S 757 mmHg 60%
    10:00 +32°C° 0.1 mm 5 m/S 757 mmHg 58%
    11:00 +33°C° 0.1 mm 5 m/S 756 mmHg 56%
    12:00 +33°C° 0.1 mm 5 m/S 756 mmHg 54%
    13:00 +33°C° 0.1 mm 5 m/S 755 mmHg 56%
    14:00 +32°C° 0.1 mm 5 m/S 755 mmHg 58%
    15:00 +32°C° 0.1 mm 6 m/S 754 mmHg 60%
    16:00 +30°C° 0 mm 5 m/S 755 mmHg 66%
    17:00 +28°C° 0 mm 5 m/S 755 mmHg 72%
    18:00 +27°C° 0 mm 5 m/S 755 mmHg 78%
    19:00 +27°C° 0 mm 5 m/S 756 mmHg 80%
    20:00 +26°C° 0 mm 5 m/S 756 mmHg 81%
    21:00 +26°C° 0 mm 5 m/S 756 mmHg 83%
    22:00 +26°C° 0.1 mm 5 m/S 756 mmHg 85%
    23:00 +25°C° 0.1 mm 5 m/S 756 mmHg 88%
    Mehr zeigen